Location: Elk Horn Observatory
(36.6768°N, 80.8309°W)
Time: 20:57:21
(UTC-05:00)

ISS - Visible Passes

Search period start: 20 November 2018 00:00
Search period end: 30 November 2018 00:00
Orbit: 401 x 409 km, 51.6° (Epoch: 21 November)

Date Brightness Start Highest point End Pass type
(mag) Time Alt. Az. Time Alt. Az. Time Alt. Az.
20 Nov -1.2 18:57:28 10° S 18:57:51 12° S 18:57:51 12° S visible
21 Nov -0.5 19:40:54 10° WSW 19:41:07 11° WSW 19:41:07 11° WSW visible
22 Nov -3.4 18:48:52 10° SW 18:51:34 50° S 18:51:34 50° S visible
23 Nov -2.6 17:57:16 10° S 18:00:03 26° SE 18:01:56 16° E visible
23 Nov -0.8 19:33:39 10° W 19:34:38 16° W 19:34:38 16° W visible
24 Nov -3.2 18:41:06 10° WSW 18:44:16 49° NW 18:44:53 42° N visible
25 Nov -3.9 17:48:54 10° SW 17:52:08 78° SE 17:55:04 12° NE visible
25 Nov -0.8 19:27:01 10° WNW 19:27:44 13° NW 19:27:44 13° NW visible
26 Nov -1.9 18:33:57 10° W 18:36:36 22° NNW 18:37:50 18° N visible
27 Nov -2.8 17:41:14 10° WSW 17:44:19 39° NW 17:47:24 10° NE visible
28 Nov -1.3 18:27:27 10° NW 18:29:02 13° NNW 18:30:28 10° N visible
29 Nov -1.7 17:34:11 10° WNW 17:36:37 19° NNW 17:39:03 10° NNE visible
